FW6667 Weather Reports


Display with metric or nautical units.
time (UTC)temp
F
wind
direction
speed
MPH
gust
MPH
rain 1hr
in
rain 24hr
in
rain mn
in
humidity
%
barometer
mb
20260505011009 44 155 0.0 0.0 0.00 0.00 0.00 89 1017.6
20260505010009 44 155 0.0 0.0 0.00 0.00 0.00 84 1017.9
20260505004009 46 155 0.0 0.0 0.00 0.00 0.00 83 1017.9
20260505003010 47 155 0.0 0.0 0.00 0.00 0.00 80 1017.9
20260505002010 47 155 0.0 1.0 0.00 0.00 0.00 80 1017.9
20260505001009 48 155 0.0 1.0 0.00 0.00 0.00 75 1017.9
20260505000010 48 154 0.0 0.0 0.00 0.00 0.00 75 1017.9
20260504235012 48 155 0.0 1.0 0.00 0.00 0.00 75 1017.9
20260504234009 48 156 0.0 2.0 0.00 0.00 0.00 77 1018.2
20260504233010 47 144 1.0 1.0 0.00 0.00 0.00 81 1018.6
20260504232010 47 161 0.0 0.0 0.00 0.00 0.00 84 1018.4
20260504231010 48 162 0.0 1.0 0.00 0.00 0.00 78 1018.3
20260504230010 50 162 0.0 1.0 0.00 0.00 0.00 76 1018.4
20260504225008 51 153 1.0 1.0 0.00 0.00 0.00 68 1018.6
20260504224009 52 149 0.0 1.0 0.00 0.00 0.00 66 1018.3
20260504223012 52 149 0.0 0.0 0.00 0.00 0.00 65 1018.3
20260504220013 52 155 0.0 0.0 0.00 0.00 0.00 66 1018.6
20260504215008 52 156 0.0 0.0 0.00 0.00 0.00 69 1018.6
20260504214008 52 156 0.0 0.0 0.00 0.00 0.00 69 1018.6
20260504213009 52 156 0.0 1.0 0.00 0.00 0.00 69 1018.6
20260504212010 51 156 0.0 0.0 0.00 0.00 0.00 71 1018.6
20260504211009 51 156 0.0 0.0 0.00 0.00 0.00 71 1018.6
20260504205010 53 156 0.0 1.0 0.00 0.00 0.00 72 1018.6
20260504204009 53 156 0.0 0.0 0.00 0.00 0.00 68 1018.6
20260504201010 56 151 0.0 0.0 0.00 0.00 0.00 62 1018.6
20260504200009 57 151 0.0 0.0 0.00 0.00 0.00 59 1018.6
20260504195010 58 151 0.0 0.0 0.00 0.00 0.00 58 1018.6
20260504194007 58 151 0.0 0.0 0.00 0.00 0.00 58 1018.6
20260504192010 59 151 0.0 0.0 0.00 0.00 0.00 57 1018.6
20260504191009 60 151 0.0 0.0 0.00 0.00 0.00 55 1018.3
20260504190010 61 150 0.0 1.0 0.00 0.00 0.00 53 1018.3
20260504185019 62 151 0.0 1.0 0.00 0.00 0.00 52 1018.3
20260504183009 62 159 0.0 0.0 0.00 0.00 0.00 52 1018.2
20260504182009 62 159 0.0 0.0 0.00 0.00 0.00 54 1018.3
20260504181010 62 159 0.0 0.0 0.00 0.00 0.00 54 1018.1
20260504180009 63 159 0.0 0.0 0.00 0.00 0.00 53 1017.9
20260504174013 67 159 0.0 0.0 0.00 0.00 0.00 48 1017.9
20260504173018 70 160 0.0 1.0 0.00 0.00 0.00 39 1018.0
20260504172009 71 161 0.0 3.0 0.00 0.00 0.00 36 1017.9
20260504171008 72 158 2.0 3.0 0.00 0.00 0.00 35 1018.3
20260504151011 77 149 1.0 8.0 0.00 0.00 0.00 28 1018.6
20260504141012 78 177 5.0 10.0 0.00 0.00 0.00 25 1019.0
20260504100205 72 110 4.0 10.0 0.00 0.00 0.00 34 1022.1
20260504044104 43 174 0.0 1.0 0.00 0.00 0.00 81 1022.5
20260504043135 42 173 0.0 1.0 0.00 0.00 0.00 84 1022.4
20260504040032 38 158 0.0 0.0 0.00 0.00 0.00 93 1022.3
20260504035043 38 149 0.0 0.0 0.00 0.00 0.00 92 1022.0
20260504034027 38 153 0.0 0.0 0.00 0.00 0.00 95 1022.0
20260504033038 37 158 0.0 0.0 0.00 0.00 0.00 95 1022.0
20260504032025 37 158 0.0 0.0 0.00 0.00 0.00 95 1022.0
20260504031021 37 159 0.0 0.0 0.00 0.00 0.00 95 1022.4
20260504030023 37 159 0.0 0.0 0.00 0.00 0.00 94 1022.0
20260504025022 37 158 0.0 0.0 0.00 0.00 0.00 95 1022.0
20260504024010 38 159 0.0 0.0 0.00 0.00 0.00 94 1022.0
20260504023012 38 159 0.0 0.0 0.00 0.00 0.00 94 1022.0
20260504022026 38 159 0.0 0.0 0.00 0.00 0.00 93 1022.0
20260504021029 38 159 0.0 0.0 0.00 0.00 0.00 93 1022.0
20260504015136 39 158 0.0 0.0 0.00 0.00 0.00 92 1022.0
20260504014011 39 158 0.0 0.0 0.00 0.00 0.00 92 1022.0
20260504013013 39 158 0.0 0.0 0.00 0.00 0.00 89 1022.0
20260504012014 40 159 0.0 0.0 0.00 0.00 0.00 88 1022.0